This demonstration page uses our WeatherBlox Daily Observations layout. Learn more.

Left ArrowRight Arrow

34.74481, -87.66753

Hourly Observations for April 16, 2015

Temp ( °F °C ) Dew Point ( °F °C ) Humidity (%) Winds ( mph kmh ) Pressure ( in mb ) Visibility ( mi km ) Precip ( " mm )
12:53 am 00:53 Mostly Cloudy 66 18.9 61 16.1 84 84 Calm 30.03 1017 10 16 0.00 0.00
1:53 am 01:53 Cloudy 67 19.4 62 16.7 84 84 SE 6 9 30.03 1017 10 16 0.00 0.00
2:53 am 02:53 Cloudy 68 20 62 16.7 81 81 SE 7 11 30.03 1017 10 16 0.00 0.00
3:53 am 03:53 Partly Cloudy 67 19.4 62 16.7 84 84 SE 8 13 30.02 1017 10 16 0.00 0.00
4:00 am 04:00 Mostly Cloudy with Nearby Thunderstorms 67 19.4 62 16.7 84 84 SE 8 13 30.00 1016 10 16 0.00 0.00
4:18 am 04:18 Mostly Cloudy with Heavy Rain 67 19.4 63 17.2 87 87 SE 7 11 30.03 1017 5 8 0.02 0.51
4:31 am 04:31 Cloudy with Nearby Thunderstorms 66 18.9 63 17.2 90 90 SE 8 13 30.03 1017 9 14 0.02 0.51
4:44 am 04:44 Cloudy with Thunderstorms 66 18.9 63 17.2 90 90 SE 8 13 30.03 1017 5 8 0.03 0.76
4:51 am 04:51 Cloudy with Thunderstorms 66 19 63 17 88 88 SSE 6 9 30.03 1017 7 11 0.03 0.76
4:53 am 04:53 Cloudy with Thunderstorms 66 18.9 63 17.2 90 90 SSE 8 13 30.04 1017 6 10 0.03 0.76
5:05 am 05:05 Cloudy with Nearby Thunderstorms 66 18.9 63 17.2 90 90 SSE 9 15 30.03 1017 8 13 0.00 0.03
5:16 am 05:16 Mostly Cloudy with Nearby Thunderstorms 66 18.9 63 17.2 90 90 SE 7 11 30.03 1017 8 13 0.01 0.25
5:33 am 05:33 Mostly Cloudy 66 18.9 63 17.2 90 90 SE 7 11 30.03 1017 8 13 0.01 0.25
5:53 am 05:53 Mostly Cloudy 66 18.9 63 17.2 90 90 VRB 3 6 30.05 1018 8 13 0.01 0.25
6:00 am 06:00 Mostly Cloudy 66 18.9 63 17.2 90 90 SE 3 6 30.03 1017 9 14 0.00 0.00
6:45 am 06:45 Cloudy 66 18.9 63 17.2 90 90 ESE 7 11 30.06 1018 8 13 0.00 0.03
6:53 am 06:53 Cloudy 66 18.9 63 17.2 90 90 ESE 10 17 30.06 1018 7 11 0.00 0.03
7:03 am 07:03 Cloudy 66 18.9 63 17.2 90 90 ESE 8 13 30.06 1018 7 11 0.00 0.00
7:53 am 07:53 Cloudy 64 17.8 61 16.1 90 90 ESE 9 15 30.08 1019 9 14 0.00 0.00
8:53 am 08:53 Cloudy 63 17.2 59 15 87 87 SE 14 22 30.09 1019 9 14 0.00 0.00
9:17 am 09:17 Cloudy 63 17.2 59 15 87 87 SE 9 15 30.06 1018 10 16 0.00 0.00
9:25 am 09:25 Cloudy 63 17.2 59 15 87 87 SE 7 11 30.09 1019 10 16 0.00 0.00
9:53 am 09:53 Cloudy with Mist and Fog 63 17.2 60 15.6 90 90 ESE 8 13 30.12 1020 3 4 0.00 0.00
10:08 am 10:08 Cloudy with Light Rain 63 17.2 60 15.6 90 90 SE 10 17 30.09 1019 4 6 0.01 0.25
10:21 am 10:21 Cloudy with Mist and Fog 63 17.2 60 15.6 90 90 ESE 9 15 30.12 1020 3 4 0.01 0.25
10:28 am 10:28 Cloudy with Nearby Thunderstorms 63 17.2 59 15 87 87 VRB 3 6 30.12 1020 2 2 0.11 2.79
10:40 am 10:40 Cloudy with Nearby Thunderstorms 62 16.7 59 15 90 90 E 5 7 30.12 1020 1 1 0.33 8.38
10:48 am 10:48 Cloudy with Nearby Thunderstorms 63 17 61 16 94 94 E 7 11 30.12 1020 3 4 0.34 8.64
10:53 am 10:53 Cloudy with Nearby Thunderstorms 63 17.2 60 15.6 90 90 E 7 11 30.12 1020 4 6 0.35 8.89
11:04 am 11:04 Cloudy with Light Rain 64 17.8 61 16.1 90 90 ESE 9 15 30.12 1020 8 13 0.00 0.03
11:23 am 11:23 Cloudy 65 18.3 61 16.1 87 87 SE 12 19 30.09 1019 10 16 0.00 0.03
11:53 am 11:53 Cloudy 67 19.4 62 16.7 84 84 SSE 12 19 30.10 1019 10 16 0.00 0.03
12:53 pm 12:53 Cloudy 67 19.4 62 16.7 84 84 SE 10 17 30.10 1019 10 16 0.00 0.00
1:53 pm 13:53 Cloudy 68 20 62 16.7 81 81 SE 10 17 30.10 1019 10 16 0.00 0.03
2:45 pm 14:45 Cloudy 68 20 62 16.7 81 81 ESE 9 15 30.06 1018 10 16 0.00 0.00
2:53 pm 14:53 Cloudy 68 20 62 16.7 81 81 ESE 12 19 30.08 1019 10 16 0.00 0.00
3:25 pm 15:25 Cloudy 69 20.6 62 16.7 78 78 ESE 7 11 30.06 1018 10 16 0.00 0.00
3:33 pm 15:33 Cloudy 69 20.6 63 17.2 81 81 ESE 8 13 30.03 1017 10 16 0.00 0.00
3:53 pm 15:53 Cloudy 69 20.6 62 16.7 78 78 ESE 6 9 30.06 1018 10 16 0.00 0.00
4:53 pm 16:53 Cloudy 68 20 62 16.7 81 81 SSE 13 20 30.07 1018 10 16 0.00 0.00
5:45 pm 17:45 Cloudy 68 20 62 16.7 81 81 E 8 13 30.06 1018 10 16 0.00 0.00
5:53 pm 17:53 Cloudy 67 19.4 61 16.1 81 81 ESE 7 11 30.08 1019 10 16 0.00 0.00
6:05 pm 18:05 Cloudy 67 19.4 61 16.1 81 81 ESE 7 11 30.06 1018 10 16 0.00 0.00
6:34 pm 18:34 Cloudy 67 19.4 61 16.1 81 81 ESE 8 13 30.06 1018 10 16 0.00 0.00
6:53 pm 18:53 Cloudy 66 18.9 61 16.1 84 84 ESE 7 11 30.09 1019 10 16 0.00 0.00
7:53 pm 19:53 Cloudy 65 18.3 60 15.6 84 84 ESE 10 17 30.10 1019 10 16 0.00 0.00
8:22 pm 20:22 Cloudy 64 17.8 59 15 84 84 ESE 10 17 30.09 1019 10 16 0.00 0.00
8:53 pm 20:53 Cloudy 63 17.2 58 14.4 84 84 E 13 20 30.09 1019 10 16 0.00 0.00
9:53 pm 21:53 Cloudy 62 16.7 57 13.9 84 84 ESE 10 17 30.10 1019 10 16 0.00 0.00
10:53 pm 22:53 Cloudy 60 15.6 56 13.3 86 86 ESE 9 15 30.10 1019 8 13 0.00 0.00
11:53 pm 23:53 Cloudy 60 15.6 56 13.3 86 86 SE 7 11 30.12 1020 9 14 0.00 0.00

Powered by AerisWeather